[[{"header":{"parameterUnit":"m.s-1","parameterCategory":1,"la1":30.2991,"la2":30.254,"lo1":-89.0895,"lo2":-89.0444,"dy":0.0017,"dx":0.0017,"nx":28,"ny":28,"refTime":"2025-11-10T03:00:00:Z","depth":0,"parameterNumber":2,"parameterNumberName":"U-component_of_WINDS"},"data":[0,0,0,0,0,0,0,0,0,0,0,0,0,0,0,0,0,0,0,0,0,0,0,0,0,0,0,0,0,0,0,0,0,0,0,0,0,0,0,0,0,0,0,0,0,0,0,0,0,0,0,0,0,0,0,0,0,0,2.3514,2.3515,0,2.3545,2.3545,2.3546,2.354,2.3539,2.3539,2.3538,2.3567,2.3569,2.357,0,0,0,0,0,0,0,0,0,0,0,0,0,2.345,2.3452,2.3514,2.3515,2.3515,2.3545,2.3545,2.3546,2.354,2.3539,2.3538,2.3538,2.3567,2.3568,2.357,0,0,0,0,0,0,0,0,0,0,0,0,0,2.3479,2.3452,2.3514,2.3516,2.3516,2.3545,2.3545,2.3546,2.354,2.3539,2.3538,2.3537,2.3566,2.3568,2.357,2.3599,0,0,2.3576,2.3577,0,0,0,0,0,0,0,0,2.3478,2.3482,2.3515,2.3516,2.3516,2.3538,2.3534,2.3564,2.354,2.3531,2.3538,2.3537,2.3558,2.3561,2.3568,2.36,2.3601,2.3576,2.3577,2.3578,2.3579,0,0,0,0,0,0,0,2.3476,2.348,2.3526,2.3516,2.3516,2.3515,2.3518,2.3539,2.3549,2.3532,2.3531,2.3535,2.3558,2.3566,2.3569,2.3602,2.3576,2.3578,2.3579,2.358,2.366,2.3661,0,0,0,0,0,0,2.3473,2.3479,2.3525,2.3527,2.3495,2.3517,2.352,2.3532,2.3548,2.355,2.3536,2.3535,2.3563,2.3566,2.357,2.3605,2.3578,2.358,2.3581,2.3659,2.366,2.3661,0,0,0,0,0,0,2.3472,2.3477,2.3524,2.3503,2.3509,2.3519,2.3532,2.3533,2.3541,2.3552,2.3553,2.3542,2.3563,2.3567,2.3592,2.3605,2.3581,2.3583,2.3658,2.3659,2.3661,2.3674,0,0,0,0,0,0,2.347,2.3477,2.3488,2.3503,2.351,2.3546,2.3532,2.3534,2.3544,2.3543,2.3558,2.356,2.3562,2.3589,2.3594,2.3608,2.3584,2.3657,2.3659,2.366,2.3673,2.3676,2.3679,0,0,0,0,0,2.3468,2.349,2.3488,2.3494,2.3524,2.3547,2.3551,2.3554,2.3545,2.3556,2.3564,2.3559,2.3604,2.3592,2.3597,2.3612,2.3656,2.3658,2.366,2.3671,2.3675,2.3679,0,0,0,0,0,0,2.3474,2.3492,2.349,2.3518,2.3531,2.3546,2.3559,2.3558,2.3573,2.3571,2.3574,2.3578,2.3603,2.361,2.3597,2.3641,2.3629,2.3632,2.3635,2.3639,2.3642,2.3639,2.3586,0,0,0,0,0,2.3479,2.3497,2.3511,2.3534,2.3541,2.3549,2.3559,2.3561,2.3575,2.358,2.3589,2.3602,2.3619,2.3629,2.3646,2.3674,2.3678,2.3687,2.369,2.3693,2.3695,2.3712,2.3716,2.3668,2.3668,2.3668,0,0,2.3489,2.3501,2.3511,2.3536,2.3546,2.3564,2.3554,2.3573,2.3586,2.3582,2.3607,2.3614,2.3629,2.3656,2.3668,2.3662,2.371,2.3696,2.3698,2.3699,2.3715,2.3719,2.3723,2.367,2.367,2.3669,0,0,2.3515,2.3526,2.3547,2.3558,2.3575,2.3581,2.3586,2.3601,2.3606,2.3631,2.3629,2.3645,2.3674,2.3685,2.3694,2.3728,2.3725,2.3734,2.3749,2.3765,2.3769,2.3772,2.3784,2.3789,2.3736,2.3736,2.3736,0,2.3525,2.3552,2.3558,2.3578,2.3589,2.3588,2.3609,2.362,2.364,2.3648,2.3641,2.3679,2.3688,2.3719,2.3727,2.3735,2.3741,2.3731,2.3768,2.3772,2.3775,2.3786,2.3791,2.3737,2.3737,2.3737,2.3737,0,2.3564,2.3583,2.3598,2.3619,2.3632,2.3652,2.3661,2.3673,2.3675,2.3682,2.3708,2.372,2.3739,2.3746,2.3747,2.3777,2.3773,2.3768,2.3755,2.378,2.3791,2.3796,2.3739,2.3738,2.3738,2.3738,0,0,2.3592,2.3619,2.3624,2.3634,2.3653,2.3668,2.369,2.3709,2.372,2.3735,2.3753,2.3779,2.3774,2.3785,2.3788,2.3802,2.3828,2.3795,2.3795,2.38,2.3862,2.3866,2.3871,2.3827,2.3828,2.3829,2.3861,0,2.362,2.3658,2.3665,2.3697,2.3716,2.3716,2.3735,2.3749,2.3757,2.3773,2.3781,2.38,2.3792,2.3799,2.3813,2.3822,2.3841,2.382,2.3843,2.3844,2.3838,2.3876,2.3879,2.3909,2.3865,2.3866,2.3866,0,2.3657,2.3675,2.371,2.3729,2.3737,2.3753,2.3773,2.3789,2.3805,2.381,2.3823,2.3824,2.3847,2.3835,2.3865,2.3851,2.3861,2.3867,2.3869,2.387,2.3855,2.3878,2.3919,2.3923,2.3873,2.3873,2.3872,0,2.3675,2.3707,2.3733,2.3741,2.3764,2.3775,2.3785,2.3801,2.3813,2.383,2.3838,2.3858,2.3868,2.3883,2.389,2.3881,2.392,2.3909,2.3924,2.3924,2.3931,2.393,2.3974,2.394,2.394,2.3939,2.3939,0,2.3705,2.3726,2.3741,2.3756,2.378,2.3788,2.3812,2.3822,2.3836,2.3853,2.3856,2.3872,2.388,2.3898,2.3904,2.3929,2.3933,2.3937,2.3938,2.3937,2.3936,2.3942,2.394,2.3941,2.394,2.394,2.394,0,2.3727,2.3738,2.3765,2.3785,2.3791,2.3808,2.3825,2.384,2.3849,2.3871,2.3877,2.389,2.3911,2.392,2.3946,2.395,2.3978,2.3978,2.3972,2.3972,2.3987,2.3986,2.4035,2.4042,2.4004,2.4005,2.4005,0,2.3744,2.3761,2.3784,2.3796,2.3806,2.3826,2.3839,2.3848,2.3862,2.3883,2.3896,2.3917,2.3935,2.3969,2.398,2.4,2.4,2.4016,2.4003,2.4001,2.4,2.3998,2.4,2.4018,2.4018,2.4019,2.4019,0,2.3775,2.378,2.3799,2.382,2.3836,2.3853,2.387,2.388,2.3892,2.3907,2.3929,2.3943,2.397,2.3991,2.4013,2.4023,2.4023,2.4024,2.4028,2.4026,2.4022,2.4024,2.3978,2.4022,2.4022,2.4021,2.4021,2.4021,2.3795,2.381,2.3829,2.385,2.3864,2.388,2.3896,2.3908,2.3927,2.395,2.3955,2.3978,2.3996,2.4025,2.4036,2.4055,2.4051,2.4057,2.4059,2.406,2.4061,2.402,2.4059,2.4059,2.4059,2.4058,2.4058,0,2.3824,2.3837,2.3857,2.3881,2.3898,2.3899,2.3918,2.3932,2.3954,2.3971,2.3989,2.4015,2.4036,2.4051,2.4072,2.4085,2.4085,2.409,2.4088,2.4091,2.4063,2.4057,2.4089,2.4089,2.4089,2.4089,2.4089,2.4089,2.3842,2.3868,2.3876,2.3909,2.3922,2.3946,2.3957,2.3972,2.3986,2.4015,2.4034,2.4044,2.406,2.4083,2.4103,2.4107,2.4114,2.4119,2.4122,2.4096,2.4093,2.4089,2.4083,2.4121,2.4121,2.4148,2.4149,2.4149]},{"header":{"parameterUnit":"m.s-1","parameterCategory":1,"la1":30.2991,"la2":30.254,"lo1":-89.0895,"lo2":-89.0444,"dy":0.0017,"dx":0.0017,"nx":28,"ny":28,"refTime":"2025-11-10T03:00:00:Z","depth":0,"parameterNumber":3,"parameterNumberName":"V-component_of_WINDS"},"data":[0,0,0,0,0,0,0,0,0,0,0,0,0,0,0,0,0,0,0,0,0,0,0,0,0,0,0,0,0,0,0,0,0,0,0,0,0,0,0,0,0,0,0,0,0,0,0,0,0,0,0,0,0,0,0,0,0,0,-9.4971,-9.4973,0,-9.5146,-9.5148,-9.515,-9.504,-9.5035,-9.503,-9.5025,-9.5196,-9.5205,-9.5215,0,0,0,0,0,0,0,0,0,0,0,0,0,-9.4535,-9.4543,-9.4971,-9.4973,-9.4975,-9.5146,-9.5148,-9.515,-9.5041,-9.5035,-9.5029,-9.5023,-9.5193,-9.5204,-9.5215,0,0,0,0,0,0,0,0,0,0,0,0,0,-9.4718,-9.4546,-9.497,-9.4941,-9.494,-9.5145,-9.5148,-9.5151,-9.5042,-9.5035,-9.5027,-9.502,-9.5189,-9.5203,-9.5217,-9.5457,0,0,-9.526,-9.5266,0,0,0,0,0,0,0,0,-9.4708,-9.4734,-9.4943,-9.4944,-9.4943,-9.5064,-9.5057,-9.5253,-9.5044,-9.5004,-9.5025,-9.5016,-9.5158,-9.5174,-9.5223,-9.5465,-9.5473,-9.5261,-9.5269,-9.5275,-9.5279,0,0,0,0,0,0,0,-9.4695,-9.4726,-9.504,-9.4946,-9.4946,-9.4917,-9.4935,-9.5094,-9.5121,-9.5006,-9.4999,-9.5022,-9.5156,-9.521,-9.5226,-9.5475,-9.5261,-9.5273,-9.5282,-9.5287,-9.5924,-9.5932,0,0,0,0,0,0,-9.4686,-9.4716,-9.5034,-9.5045,-9.4805,-9.4931,-9.4951,-9.5032,-9.5119,-9.5125,-9.5028,-9.5016,-9.519,-9.521,-9.5232,-9.552,-9.5275,-9.5288,-9.5296,-9.5915,-9.5926,-9.5935,0,0,0,0,0,0,-9.4677,-9.4715,-9.5027,-9.4879,-9.4916,-9.4947,-9.5039,-9.504,-9.5094,-9.5136,-9.5139,-9.5079,-9.5185,-9.5212,-9.5403,-9.5525,-9.5295,-9.5307,-9.5905,-9.5918,-9.593,-9.6098,0,0,0,0,0,0,-9.4665,-9.4713,-9.4806,-9.4882,-9.4925,-9.5198,-9.5047,-9.5049,-9.5119,-9.5105,-9.5184,-9.519,-9.5181,-9.5383,-9.5417,-9.554,-9.5318,-9.5894,-9.5911,-9.5926,-9.6082,-9.6115,-9.6143,0,0,0,0,0,-9.465,-9.4844,-9.4811,-9.485,-9.5042,-9.5205,-9.5229,-9.5217,-9.513,-9.5223,-9.525,-9.5187,-9.5506,-9.5403,-9.5441,-9.557,-9.5887,-9.5906,-9.5925,-9.6068,-9.6108,-9.6143,0,0,0,0,0,0,-9.4778,-9.4853,-9.4818,-9.5043,-9.5119,-9.5186,-9.5303,-9.526,-9.536,-9.5342,-9.532,-9.5339,-9.5539,-9.5572,-9.5457,-9.5807,-9.5682,-9.571,-9.5778,-9.5817,-9.5847,-9.5835,-9.533,0,0,0,0,0,-9.4834,-9.4962,-9.5019,-9.5212,-9.5253,-9.5272,-9.5342,-9.5327,-9.5403,-9.5434,-9.5474,-9.5549,-9.5666,-9.5743,-9.5852,-9.6086,-9.6101,-9.6193,-9.6224,-9.6249,-9.6273,-9.64,-9.6441,-9.5998,-9.5998,-9.5997,0,0,-9.4948,-9.5005,-9.5086,-9.524,-9.5297,-9.5428,-9.5299,-9.5443,-9.554,-9.5454,-9.5638,-9.5671,-9.5752,-9.5966,-9.6062,-9.6,-9.6399,-9.6273,-9.6293,-9.6304,-9.6424,-9.6466,-9.6503,-9.6011,-9.6008,-9.6006,0,0,-9.5223,-9.5279,-9.5447,-9.5508,-9.5597,-9.5609,-9.5649,-9.5724,-9.5744,-9.5928,-9.5867,-9.5981,-9.6182,-9.6243,-9.6301,-9.6602,-9.6548,-9.6638,-9.6799,-9.6923,-9.6958,-9.6989,-9.7097,-9.7136,-9.6662,-9.6662,-9.6662,0,-9.5353,-9.5552,-9.5538,-9.5689,-9.5758,-9.569,-9.5859,-9.5917,-9.6036,-9.6085,-9.6015,-9.6268,-9.6317,-9.6545,-9.6619,-9.6668,-9.6712,-9.6629,-9.6954,-9.6985,-9.7014,-9.7117,-9.7157,-9.6673,-9.6671,-9.667,-9.6669,0,-9.5707,-9.5846,-9.597,-9.6092,-9.6174,-9.6333,-9.6342,-9.6427,-9.6405,-9.6424,-9.6612,-9.667,-9.6791,-9.6844,-9.6822,-9.7069,-9.7028,-9.6957,-9.6831,-9.7067,-9.7163,-9.7202,-9.6687,-9.6684,-9.6681,-9.6678,0,0,-9.6068,-9.6182,-9.6228,-9.6283,-9.6377,-9.6482,-9.6638,-9.6759,-9.6833,-9.6917,-9.7047,-9.722,-9.7155,-9.7221,-9.7205,-9.7314,-9.755,-9.7229,-9.723,-9.7287,-9.7826,-9.788,-9.7926,-9.7515,-9.7522,-9.7528,-9.782,0,-9.635,-9.6625,-9.6618,-9.6873,-9.7,-9.6938,-9.7073,-9.7145,-9.7167,-9.7276,-9.7298,-9.7423,-9.7328,-9.7367,-9.7472,-9.7499,-9.7658,-9.7478,-9.7634,-9.7639,-9.7616,-9.7976,-9.8033,-9.8305,-9.7857,-9.7864,-9.7868,0,-9.6715,-9.6817,-9.7086,-9.7163,-9.7216,-9.7338,-9.745,-9.7556,-9.7635,-9.7643,-9.7718,-9.7686,-9.7841,-9.7712,-9.7925,-9.7803,-9.7866,-9.7889,-9.7899,-9.7914,-9.7768,-9.8001,-9.8392,-9.8433,-9.7927,-9.7922,-9.7918,0,-9.6953,-9.7156,-9.7343,-9.7392,-9.7486,-9.7574,-9.7617,-9.7689,-9.7763,-9.7859,-9.7907,-9.8019,-9.8081,-9.8167,-9.8165,-9.8071,-9.8382,-9.8252,-9.8392,-9.8393,-9.8461,-9.8457,-9.8868,-9.8501,-9.85,-9.8499,-9.8499,0,-9.7269,-9.7436,-9.7452,-9.7567,-9.7752,-9.7742,-9.7924,-9.7958,-9.8023,-9.8142,-9.8094,-9.8206,-9.8197,-9.831,-9.8309,-9.8486,-9.8514,-9.8524,-9.8522,-9.8529,-9.8528,-9.857,-9.8551,-9.851,-9.8508,-9.8506,-9.8504,0,-9.7566,-9.7583,-9.7784,-9.7858,-9.788,-9.8014,-9.8076,-9.8184,-9.8203,-9.8354,-9.8389,-9.8417,-9.8548,-9.8555,-9.8704,-9.8703,-9.892,-9.8896,-9.8895,-9.889,-9.9031,-9.9018,-9.9484,-9.9545,-9.9138,-9.9142,-9.9145,0,-9.7767,-9.7894,-9.7984,-9.8062,-9.8111,-9.8237,-9.8314,-9.8308,-9.8389,-9.849,-9.8587,-9.8714,-9.8815,-9.9026,-9.9058,-9.9173,-9.9152,-9.9307,-9.9168,-9.9172,-9.9155,-9.9148,-9.9161,-9.9334,-9.9339,-9.9342,-9.9345,0,-9.8122,-9.8125,-9.8238,-9.8357,-9.845,-9.8542,-9.8627,-9.8693,-9.8697,-9.879,-9.8926,-9.9005,-9.9159,-9.9286,-9.9398,-9.9438,-9.9394,-9.9389,-9.9428,-9.9437,-9.9431,-9.9437,-9.8969,-9.9378,-9.9375,-9.9373,-9.9371,-9.937,-9.8377,-9.8488,-9.857,-9.8698,-9.8763,-9.8844,-9.8951,-9.8984,-9.9098,-9.9226,-9.9214,-9.9364,-9.944,-9.9586,-9.9637,-9.9752,-9.9699,-9.9754,-9.9769,-9.9783,-9.9798,-9.9413,-9.9772,-9.9771,-9.977,-9.977,-9.9769,0,-9.8731,-9.8781,-9.8899,-9.9022,-9.9123,-9.9075,-9.9167,-9.9254,-9.9388,-9.9464,-9.9566,-9.9722,-9.9844,-9.9887,-10.0006,-10.009,-10.0073,-10.0122,-10.0116,-10.0126,-9.9839,-9.9794,-10.0134,-10.0134,-10.0134,-10.0134,-10.0134,-10.0134,-9.8927,-9.9113,-9.9126,-9.9343,-9.9391,-9.954,-9.9597,-9.9672,-9.9733,-9.991,-10.0013,-10.0041,-10.0104,-10.0227,-10.0337,-10.0346,-10.0392,-10.0451,-10.0451,-10.0183,-10.0146,-10.0111,-10.0069,-10.0461,-10.0461,-10.0729,-10.0731,-10.0733]}]]